Погода в Масатенанго

Гватемала     14°31′45″N   91°30′17″W
темп.,
°C
ветер,
м/с
пор.,
м/с
влажн.,
%
обл.,
%
осадки,
мм/ч
давл.,
гПа
погр.,
м
9 августа, вт
вт900:00+21ссв2194100 4.1 101327
03:00+20с2281100 0.1 101124
06:00+21ссв2174100 0.1 101217
09:00+27ю1169100 0.0 1014394
12:00+28ююз227289 0.6 10121062
15:00+26зсз2384100 5.8 1011421
18:00+22с2396100 12.3 101298
21:00+22с1194100 0.5 101316
10 августа, ср
ср1000:00+21ссв119480 1.5 101323
03:00+21ссв119419 0.4 101217
06:00+20св229192 0.6 101438
09:00+27юз116612 0.0 1014458
12:00+30ююз215841 0.1 10131176
15:00+28юз227699 2.4 1011896
18:00+21ссв3697100 18.0 1013206
21:00+21с2293100 4.7 101433
11 августа, чт
чт1100:00+21всв2288100 4.7 101544
03:00+22ссв1181100 0.1 101319
06:00+22ссз2173100 0.1 101327
09:00+26ю006770 0.0 1014224
12:00+30ююз225582 0.0 10131092
15:00+29юз226298 0.3 10101078
18:00+24з1392100 4.7 101254
21:00+21ссв3697100 16.4 1014163
12 августа, пт
пт1200:00+21ссв2395100 21.3 101455
03:00+21ссв2290100 0.1 101326
06:00+22ссв218399 0.1 101322
09:00+27ю1167100 0.0 1014398
12:00+30ююз225810 0.1 10131207
15:00+27юз128457 2.9 1012688
18:00+23сз119599 10.9 101328
21:00+22с1297100 8.3 101546
13 августа, сб
сб1300:00+21ссв229731 10.9 101538
03:00+20с22949 0.0 101332
06:00+20с218978 0.0 101424
09:00+26юз126761 0.0 1014446
12:00+29юз226294 0.0 10131214
15:00+27юз228174 1.7 1011740
18:00+24з1395100 4.6 101291
21:00+22ссв1198100 4.2 101432